Location: Julian California
(33.0790°N, 116.6010°W)
Time: 17:21:23
(UTC-08:00)

CZ-3 Stage 3 - Pass Details

Date: 12 July 2018
Orbit: 429 x 35076 km, 30.7° (Epoch: 12 December)

Event Time Altitude Azimuth Distance (km) Brightness Sun altitude
Rises 20:29:00 0° 244° (WSW) 4,903 8.1 -6.7°
Reaches altitude 10° 20:33:40 10° 235° (SW) 2,543 6.5 -7.5°
Maximum altitude 20:37:44 31° 170° (S) 877 3.5 -8.2°
Enters shadow 20:40:07 10° 103° (ESE) 1,485 4.4 -8.6°
